Flag for Japan Weather past 2 weeks in Sagamihara, Japan

Now
N/A

Partly cloudy.


Feels Like: N/A
Forecast: 74 / 87 °F
Wind: 15 mph from South

Location: Yokota Ab

Current Time: Sep 2, 2015 at 12:11:45 AM

Latest Report: Sep 1, 2015 at 10:58 PM


Visibility: 10 mi

Pressure: N/A

Humidity: N/A

Dew point: N/A

Location of SagamiharaLocation

Historic Weather in Sagamihara — Graph

°F

Sagamihara temperature yesterday

Maximum temperature yesterday: 81 °F (at 1:59 PM)
Minimum temperature yesterday: 70 °F (at 12:04 AM)
Average temperature yesterday: 73 °F

Past Weeks' High & Low Weather Summary

 TemperatureHumidityPressure
High90 °F (Aug 22, 12:58 PM)100% (Aug 20, 10:03 PM)30.07 "Hg (Aug 20, 10:03 PM)
Low63 °F (Aug 26, 1:02 AM)66% (Aug 19, 10:58 AM)29.55 "Hg (Aug 22, 3:58 PM)
Average74 °F88%29.87 "Hg
* Reported Aug 17 10:58 PM — Sep 1 10:58 PM, Sagamihara, Weather by CustomWeather, © 2015

Note: Actual official high and low records may vary slightly from our data, if they occured in-between our weather recording intervals... More about our weather records

Advertising

Sagamihara weather history for previous 24 hours

 ConditionsComfort  
Time TempWeatherWind HumidityBarometerVisibility
10:58 PM
Tue, Sep 1
N/APartly cloudy.15 mphN/AN/A10 mi
10:02 PMN/APassing clouds.12 mphN/AN/A9 mi
9:58 PM73 °FPassing clouds.12 mph100%29.94 "Hg9 mi
8:58 PM75 °FSprinkles. Passing clouds.7 mph94%29.98 "Hg8 mi
8:02 PM75 °FSprinkles. Passing clouds.6 mph94%29.98 "Hg7 mi
7:58 PM75 °FSprinkles. Passing clouds.8 mph94%29.98 "Hg9 mi
7:04 PM75 °FPassing clouds.2 mph94%29.97 "Hg10 mi
5:58 PM75 °FOvercast.5 mph89%29.97 "Hg10 mi
5:00 PM77 °FMostly cloudy.7 mph83%29.97 "Hg8 mi
3:58 PM79 °FBroken clouds.6 mph79%29.97 "Hg10 mi
2:59 PM81 °FScattered clouds.10 mph79%29.98 "Hg10 mi
1:59 PM81 °FBroken clouds.6 mph79%29.99 "Hg10 mi
12:58 PM75 °FPartly sunny.5 mph89%30.02 "Hg10 mi
11:55 AM77 °FFog.3 mph89%30.00 "Hg5 mi
11:47 AMN/AMostly cloudy.3 mphN/AN/A4 mi
10:58 AM73 °FDrizzle. Low clouds.6 mph83%30.06 "Hg2 mi
9:58 AM75 °FDrizzle. Mostly cloudy.No wind78%30.07 "Hg3 mi
8:58 AM72 °FDrizzle. Low clouds.3 mph88%30.05 "Hg2 mi
7:58 AM70 °FLight rain. Low clouds.2 mph94%30.03 "Hg1 mi
6:58 AM70 °FFog.2 mph94%30.04 "Hg1 mi
5:58 AM70 °FDrizzle. Dense fog.1 mph100%30.03 "Hg1 mi
4:58 AM70 °FFog.No wind94%30.03 "Hg2 mi
3:58 AM70 °FFog.3 mph94%30.03 "Hg2 mi
3:04 AM70 °FFog.1 mphN/A30.04 "Hg2 mi
2:58 AM70 °FFog.2 mphN/A30.03 "Hg3 mi
1:58 AM70 °FLight rain. Low clouds.3 mphN/A30.04 "Hg3 mi
1:04 AM70 °FLight rain. Low clouds.No windN/A30.04 "Hg2 mi
12:04 AM70 °FFog.1 mph100%30.04 "Hg2 mi
Weather by CustomWeather, © 2015

See weather overviewHow to use our weather pages